Location: Maslives
(47.6335°N, 1.4792°E)
Time: 14:52:42
(UTC+00:00)

Cosmos 1295 Rocket - Pass Details

Date: 08 August 2025
Orbit: 944 x 992 km, 82.9° (Epoch: 10 April)

Event Time Altitude Azimuth Distance (km) Brightness Sun altitude
Exits shadow 23:49:54 67° 167° (SSE) 1,063 4.4 -26.5°
Maximum altitude 23:50:48 82° 97° (E) 998 4.4 -26.5°
Drops below altitude 10° 23:57:08 10° 11° (N) 2,760 7.8 -26.5°
Sets 23:59:41 0° 10° (N) 3,716 8.8 -26.5°
